Location: Unspecified
(0.0000°N, 0.0000°E)
Time: 21:39:55
(UTC+00:00)

Alouette 1 - Pass Details

Date: 01 November 2021
Orbit: 985 x 1019 km, 80.5° (Epoch: 07 December)

Event Time Altitude Azimuth Distance (km) Brightness Sun altitude
Rises 05:11:48 0° 175° (S) 3,707 9.3 -7.7°
Reaches altitude 10° 05:14:25 10° 170° (S) 2,761 8.7 -7.1°
Maximum altitude 05:20:33 51° 95° (E) 1,244 7.2 -5.6°
Drops below altitude 10° 05:26:42 10° 21° (NNE) 2,774 8.5 -4.1°
Sets 05:29:19 0° 16° (NNE) 3,727 9.1 -3.5°
